Powrót do katalogu

STARLINK-4211

AktywnyŁącznośćVLEO
NORAD 52873·PAYLOAD·🇺🇸 United States

Wystrzelony Jun 17, 2022 z Cape Canaveral Space Force Station

Loading…

Następne Przeloty (najbliższe 24 godziny)

TLE

ŚwieżeSource: CelesTrak SupGP

Epoka: Sep 14, 2026, 22:04 UTC

1 52873C 22062AV  26257.91993056  .00001742  00000+0  51483-4 0  2576
2 52873  53.1568 229.5032 0001449  96.9191  50.3748 15.34387788    13

Śledź STARLINK-4211 w czasie rzeczywistym z AllMySat

Download on the App Store